Weather History for Liberal, KS

Change the Weather History Date:

Sunday, September 22, 2013

  Actual Average Record
Temperature  
Mean Temperature 70 °F -  
Max Temperature 86 °F 80 °F 100 °F (1980)
Min Temperature 55 °F 53 °F 36 °F (1951)
Cooling Degree Days 6    
Growing Degree Days 20 (Base 50)    
Moisture  
Dew Point 48 °F    
Average Humidity 49    
Maximum Humidity 67    
Minimum Humidity 27    
Precipitation  
Precipitation 0.00 in - - ()
Sea Level Pressure  
Sea Level Pressure 29.83 in    
Wind  
Wind Speed 16 mph (SSE)    
Max Wind Speed 30 mph    
Max Gust Speed 36 mph    
Visibility 10 miles    
Events      
Averages and records for this station are not official NWS values.
T = Trace of Precipitation, MM = Missing Value Source: NWS Daily Summary

Daily Weather History Graph

Daily Weather History Graph

Search for Another Location

Airport:

Trip Planner

Search our weather history database for the weather conditions in past years. The results will help you decide how hot, cold, wet, or windy it might be!

Date:

Astronomy

Sep. 22, 2013 Rise Set
Actual Time 7:31 AM CDT 7:40 PM CDT
Civil Twilight 7:05 AM CDT 8:06 PM CDT
Nautical Twilight 6:35 AM CDT 8:36 PM CDT
Astronomical Twilight 6:04 AM CDT 9:07 PM CDT
Moon 9:37 PM CDT (9/22) 10:48 AM CDT (9/22)
Length of Visible Light 13h 00m
Length of Day
12h 08m
Waning Gibbous, 88% of the Moon is Illuminated
Sep 22
Waning Gibbous
Sep 26
Last Quarter
Oct 4
New
Oct 11
First Quarter
Oct 18
Full

Hourly Weather History & Observations

Time (CDT) Temp. Heat Index Dew Point Humidity Pressure Visibility Wind Dir Wind Speed Gust Speed Precip Events Conditions
12:15 AM 59.0 °F - 44.6 °F 59% 29.93 in 10.0 mi South 11.5 mph - N/A   Clear
12:35 AM 60.8 °F - 46.4 °F 59% 29.93 in 10.0 mi South 10.4 mph - N/A   Clear
12:55 AM 59.0 °F - 44.6 °F 59% 29.93 in 10.0 mi South 11.5 mph - N/A   Clear
1:15 AM 59.0 °F - 44.6 °F 59% 29.92 in 10.0 mi South 11.5 mph - N/A   Clear
1:35 AM 59.0 °F - 44.6 °F 59% 29.92 in 10.0 mi South 11.5 mph - N/A   Clear
1:55 AM 57.2 °F - 44.6 °F 63% 29.92 in 10.0 mi South 11.5 mph - N/A   Clear
2:15 AM 59.0 °F - 44.6 °F 59% 29.91 in 10.0 mi South 13.8 mph - N/A   Clear
2:35 AM 59.0 °F - 44.6 °F 59% 29.90 in 10.0 mi South 13.8 mph - N/A   Clear
2:55 AM 59.0 °F - 44.6 °F 59% 29.90 in 10.0 mi SSE 15.0 mph - N/A   Clear
3:15 AM 59.0 °F - 44.6 °F 59% 29.89 in 10.0 mi South 16.1 mph - N/A   Clear
3:35 AM 57.2 °F - 44.6 °F 63% 29.89 in 10.0 mi South 13.8 mph - N/A   Clear
3:55 AM 57.2 °F - 44.6 °F 63% 29.88 in 10.0 mi South 16.1 mph - N/A   Clear
4:15 AM 57.2 °F - 44.6 °F 63% 29.88 in 10.0 mi SSE 12.7 mph - N/A   Clear
4:35 AM 57.2 °F - 44.6 °F 63% 29.88 in 10.0 mi SSE 13.8 mph - N/A   Clear
4:55 AM 57.2 °F - 44.6 °F 63% 29.88 in 10.0 mi SSE 12.7 mph - N/A   Clear
5:15 AM 57.2 °F - 44.6 °F 63% 29.87 in 10.0 mi SSE 12.7 mph - N/A   Clear
5:35 AM 57.2 °F - 44.6 °F 63% 29.87 in 10.0 mi SSE 13.8 mph - N/A   Clear
5:55 AM 55.4 °F - 44.6 °F 67% 29.87 in 10.0 mi SSE 13.8 mph - N/A   Clear
6:15 AM 55.4 °F - 44.6 °F 67% 29.87 in 10.0 mi SSE 12.7 mph - N/A   Clear
6:35 AM 55.4 °F - 44.6 °F 67% 29.87 in 10.0 mi SSE 13.8 mph - N/A   Clear
6:55 AM 55.4 °F - 44.6 °F 67% 29.87 in 10.0 mi SSE 15.0 mph - N/A   Clear
7:15 AM 55.4 °F - 44.6 °F 67% 29.87 in 10.0 mi SSE 13.8 mph - N/A   Clear
7:35 AM 55.4 °F - 44.6 °F 67% 29.88 in 10.0 mi SSE 12.7 mph - N/A   Clear
7:55 AM 55.4 °F - 44.6 °F 67% 29.88 in 10.0 mi SSE 11.5 mph - N/A   Clear
8:15 AM 57.2 °F - 44.6 °F 63% 29.88 in 10.0 mi SSE 16.1 mph - N/A   Clear
8:35 AM 59.0 °F - 46.4 °F 63% 29.88 in 10.0 mi SSE 15.0 mph - N/A   Clear
8:55 AM 60.8 °F - 46.4 °F 59% 29.88 in 10.0 mi SSE 13.8 mph 19.6 mph N/A   Clear
9:15 AM 62.6 °F - 48.2 °F 59% 29.88 in 10.0 mi SSE 16.1 mph - N/A   Clear
9:35 AM 64.4 °F - 51.8 °F 64% 29.89 in 10.0 mi South 16.1 mph - N/A   Clear
9:55 AM 66.2 °F - 51.8 °F 60% 29.89 in 10.0 mi SSE 20.7 mph - N/A   Clear
10:15 AM 69.8 °F - 53.6 °F 56% 29.88 in 10.0 mi South 20.7 mph - N/A   Clear
10:35 AM 71.6 °F - 53.6 °F 53% 29.88 in 10.0 mi SSE 18.4 mph 24.2 mph N/A   Clear
10:55 AM 73.4 °F - 55.4 °F 53% 29.88 in 10.0 mi SSE 18.4 mph - N/A   Clear
11:15 AM 75.2 °F - 55.4 °F 50% 29.88 in 10.0 mi SSE 21.9 mph 27.6 mph N/A   Clear
11:35 AM 77.0 °F - 55.4 °F 47% 29.88 in 10.0 mi SSE 21.9 mph 27.6 mph N/A   Clear
11:55 AM 78.8 °F - 55.4 °F 44% 29.87 in 10.0 mi South 23.0 mph 28.8 mph N/A   Clear
12:15 PM 80.6 °F 80.8 °F 57.2 °F 45% 29.86 in 10.0 mi South 23.0 mph 29.9 mph N/A   Clear
12:35 PM 80.6 °F 80.5 °F 55.4 °F 42% 29.86 in 10.0 mi South 25.3 mph 29.9 mph N/A   Clear
12:55 PM 80.6 °F 80.8 °F 57.2 °F 45% 29.85 in 10.0 mi South 25.3 mph 29.9 mph N/A   Clear
1:15 PM 82.4 °F 82.0 °F 57.2 °F 42% 29.85 in 10.0 mi South 25.3 mph 28.8 mph N/A   Clear
1:35 PM 84.2 °F 83.5 °F 57.2 °F 40% 29.84 in 10.0 mi South 26.5 mph 33.4 mph N/A   Clear
1:55 PM 84.2 °F 83.0 °F 55.4 °F 37% 29.83 in 10.0 mi South 25.3 mph 29.9 mph N/A   Clear
2:15 PM 84.2 °F 82.8 °F 53.6 °F 35% 29.82 in 10.0 mi South 24.2 mph 29.9 mph N/A   Clear
2:35 PM 86.0 °F - 51.8 °F 31% 29.81 in 10.0 mi South 24.2 mph 29.9 mph N/A   Clear
2:55 PM 86.0 °F - 51.8 °F 31% 29.81 in 10.0 mi South 21.9 mph 31.1 mph N/A   Clear
3:15 PM 84.2 °F - 50.0 °F 30% 29.80 in 10.0 mi South 25.3 mph 31.1 mph N/A   Clear
3:35 PM 84.2 °F - 48.2 °F 29% 29.79 in 10.0 mi South 23.0 mph 31.1 mph N/A   Clear
3:55 PM 84.2 °F - 48.2 °F 29% 29.79 in 10.0 mi South 23.0 mph 33.4 mph N/A   Clear
4:15 PM 84.2 °F - 46.4 °F 27% 29.78 in 10.0 mi South 26.5 mph 31.1 mph N/A   Clear
4:35 PM 84.2 °F - 46.4 °F 27% 29.77 in 10.0 mi South 25.3 mph 32.2 mph N/A   Clear
4:55 PM 84.2 °F - 46.4 °F 27% 29.76 in 10.0 mi South 29.9 mph 35.7 mph N/A   Clear
5:15 PM 84.2 °F - 46.4 °F 27% 29.76 in 10.0 mi South 26.5 mph 34.5 mph N/A   Clear
5:35 PM 84.2 °F - 50.0 °F 30% 29.75 in 10.0 mi SSE 25.3 mph 34.5 mph N/A   Clear
5:55 PM 82.4 °F - 50.0 °F 32% 29.75 in 10.0 mi SSE 26.5 mph 32.2 mph N/A   Clear
6:15 PM 80.6 °F - 50.0 °F 34% 29.75 in 10.0 mi SSE 24.2 mph 33.4 mph N/A   Clear
6:35 PM 80.6 °F - 48.2 °F 32% 29.75 in 10.0 mi SSE 26.5 mph 34.5 mph N/A   Clear
6:55 PM 78.8 °F - 48.2 °F 34% 29.75 in 10.0 mi SSE 28.8 mph 34.5 mph N/A   Clear
7:15 PM 78.8 °F - 48.2 °F 34% 29.74 in 10.0 mi SSE 21.9 mph 31.1 mph N/A   Clear
7:35 PM 75.2 °F - 46.4 °F 36% 29.74 in 10.0 mi SSE 19.6 mph 25.3 mph N/A   Clear
7:55 PM 75.2 °F - 46.4 °F 36% 29.73 in 10.0 mi SSE 19.6 mph - N/A   Clear
8:15 PM 73.4 °F - 46.4 °F 38% 29.74 in 10.0 mi SSE 17.3 mph - N/A   Clear
8:35 PM 71.6 °F - 46.4 °F 41% 29.75 in 10.0 mi SSE 18.4 mph 23.0 mph N/A   Clear
8:55 PM 71.6 °F - 46.4 °F 41% 29.75 in 10.0 mi SSE 21.9 mph 25.3 mph N/A   Clear
9:15 PM 71.6 °F - 46.4 °F 41% 29.75 in 10.0 mi SSE 19.6 mph - N/A   Clear
9:35 PM 69.8 °F - 46.4 °F 43% 29.76 in 10.0 mi SSE 18.4 mph 25.3 mph N/A   Clear
9:55 PM 69.8 °F - 46.4 °F 43% 29.77 in 10.0 mi SSE 18.4 mph 25.3 mph N/A   Clear
10:15 PM 69.8 °F - 46.4 °F 43% 29.77 in 10.0 mi SSE 18.4 mph 23.0 mph N/A   Clear
10:35 PM 68.0 °F - 44.6 °F 43% 29.76 in 10.0 mi SE 18.4 mph 24.2 mph N/A   Clear
10:55 PM 66.2 °F - 44.6 °F 46% 29.76 in 10.0 mi SE 18.4 mph 25.3 mph N/A   Clear
11:15 PM 66.2 °F - 44.6 °F 46% 29.76 in 10.0 mi SE 19.6 mph 26.5 mph N/A   Clear
11:35 PM 66.2 °F - 44.6 °F 46% 29.75 in 10.0 mi SE 21.9 mph 25.3 mph N/A   Clear
11:55 PM 66.2 °F - 44.6 °F 46% 29.75 in 10.0 mi SE 21.9 mph 28.8 mph N/A   Clear